Regional Weather Roundup
Issued by NWS Little Rock, AR

Home | Current Version | Previous Version | Text Only | Print | Product List | Glossary On
Versions: 1 2 3 4 5 6 7 8 9 10 11 12 13 14 15 16 17 18 19 20 21 22 23 24 25 26 27 28 29 30 31 32 33 34 35 36 37 38 39 40 41 42 43 44 45 46 47 48 49 50
000
ASUS44 KLZK 281705
RWRLZK

WEATHER ROUNDUP FOR ARKANSAS
NATIONAL WEATHER SERVICE LITTLE ROCK AR
1200 PM CDT FRI APR 28 2017

NOTE: "FAIR" INDICATES FEW OR NO CLOUDS BELOW 12,000 FEET WITH NO
SIGNIFICANT WEATHER AND/OR OBSTRUCTIONS TO VISIBILITY.

ARZ001-003-010-029-281800-
NORTHWEST ARKANSAS

CITY           SKY/WX    TMP DP  RH WIND       PRES   REMARKS
FAYETTEVILLE   CLOUDY    62  61  96 S8        29.70R
FORT SMITH     CLOUDY    64  57  78 NE7       29.68S
HARRISON       CLOUDY    60  58  92 E7        29.72S
BENTONVILLE    CLOUDY    63  57  82 SW10      29.70R
ROGERS         LGT RAIN  63  61  94 S9        29.70S
SILOAM SPGS    CLOUDY    63  55  77 S8        29.69R
HIGHFILL       CLOUDY    63  60  90 S12       29.69R
SPRINGDALE     CLOUDY    64  61  88 S9G16     29.71R
$$

ARZ004-005-016-281800-
NORTH CENTRAL ARKANSAS

CITY           SKY/WX    TMP DP  RH WIND       PRES   REMARKS
BATESVILLE     CLOUDY    63  57  82 SE6       29.77R
FLIPPIN        CLOUDY   N/A N/A N/A SE3       29.70S
MTN HOME       CLOUDY    61  56  83 SE8G16    29.72S
$$

ARZ040-041-281800-
WEST CENTRAL ARKANSAS

CITY           SKY/WX    TMP DP  RH WIND       PRES   REMARKS
MENA           CLOUDY    70  68  94 S9        29.71S
MOUNT IDA      CLOUDY    68  64  87 VRB5      29.69F
$$

ARZ009-017-025-026-028-281800-
NORTHEAST ARKANSAS

CITY           SKY/WX    TMP DP  RH WIND       PRES   REMARKS
CORNING        HVY RAIN  66  63  88 SE12G18   29.77F
JONESBORO      CLOUDY    70  63  78 SE12      29.77F
NEWPORT        CLOUDY    67  63  87 MISG      29.76
WALNUT RIDGE   CLOUDY    64  57  77 SE10      29.77S
BLYTHEVILLE    CLOUDY    70  65  84 SE10      29.80F
NW BLYTHEVILLE CLOUDY    70  64  83 SE10      29.79F
$$

ARZ022-023-033-042-044-281800-
CENTRAL ARKANSAS

CITY           SKY/WX    TMP DP  RH WIND       PRES   REMARKS
LITTLE ROCK    CLOUDY    71  68  90 S9        29.74S
N LITTLE ROCK    N/A     68  65  90 S6        29.74F
JACKSONVILLE   CLOUDY    70  66  88 S7        29.74S
CONWAY           N/A     68  64  88 VRB3      29.72S
SEARCY         CLOUDY    66  63  90 SE6       29.76F
HOT SPRINGS    CLOUDY    68  65  90 S6        29.73F
RUSSELLVILLE   CLOUDY    63  59  87 E5        29.72S
CLINTON        FOG       61  59  94 CALM      29.75S VSB 1
$$

ARZ036-281800-
EAST ARKANSAS

CITY           SKY/WX    TMP DP  RH WIND       PRES   REMARKS
WEST MEMPHIS   CLOUDY    73  69  87 S16G25    29.78F
$$

ARZ050-053-066-070-073-281800-
SOUTHWEST ARKANSAS

CITY           SKY/WX    TMP DP  RH WIND       PRES   REMARKS
ARKADELPHIA    CLOUDY    70  66  87 CALM      29.73S
CAMDEN         CLOUDY    77  66  69 SE9       29.73S
TEXARKANA      CLOUDY    76  70  82 S12G20    29.70S
EL DORADO      CLOUDY    80  71  74 S13       29.73F
DE QUEEN       CLOUDY    68  65  90 SE5       29.69S
$$

ARZ056-057-069-281800-
SOUTHEAST ARKANSAS

CITY           SKY/WX    TMP DP  RH WIND       PRES   REMARKS
PINE BLUFF     CLOUDY    76  70  82 S13       29.75S
STUTTGART      PTSUNNY   75  61  60 S17       29.76S
MONTICELLO     CLOUDY    77  70  79 S7        29.76F

$$





USA.gov is the U.S. government's official web portal to all federal, state and local government web resources and services.